Regional Weather Roundup
Issued by NWS

Home | Current Version | Previous Version | Text Only | Print | Product List | Glossary On
Versions: 1 2 3 4 5 6 7 8 9 10 11 12 13 14 15 16 17 18 19 20 21 22 23 24 25 26 27
000
ASUS44 KLIX 052211
RWRLA
LOUISIANA WEATHER ROUNDUP
NATIONAL WEATHER SERVICE NEW ORLEANS LA
500 PM CDT THU MAY 05 2016

NOTE: "FAIR" INDICATES FEW OR NO CLOUDS BELOW 12,000 FEET WITH NO
      SIGNIFICANT WEATHER AND/OR OBSTRUCTIONS TO VISIBILITY.
      SKY/WX - SKY CONDITION AND SIGNIFICANT WEATHER.
      TMP - AIR TEMPERATURE.    DP   - DEWPOINT TEMPERATURE.
      RH  - RELATIVE HUMIDITY.  PRES - PRESSURE.
      HX  - HEAT INDEX.         WCI  - WIND CHILL INDEX.

*  THESE STATIONS ARE NOT NWS OR FAA STATIONS AND ARE NOT UNDER
   NWS QUALITY CONTROL.

LAZ040-048-061>063-065-066-069-052300-
SOUTHEAST LOUISIANA

CITY           SKY/WX    TMP DP  RH WIND       PRES   REMARKS
N.O. AUDUBON     N/A     82  53  37 MISG        N/A
N.O. INTL ARPT SUNNY     79  49  34 NW13G18   29.87F
N.O. LAKEFRONT SUNNY     77  54  44 NW12      29.88F
N.O. DOWNTOWN* FAIR      80  49  33 VRB7      29.88F
RESERVE*       FAIR      81  44  26 NW12      29.88S
SLIDELL        SUNNY     79  46  31 NW12G18   29.86F
BATON ROUGE    SUNNY     78  41  26 NW12G22   29.90F
BOOTHVILLE     SUNNY     77  50  38 NW13      29.87F
BELLE CHASSE   SUNNY     79  48  33 NW8G16    29.87F
BOGALUSA*      FAIR      79  39  23 NW12G21   29.90S
GALLIANO*      CLEAR     82  45  27 N8        29.87F
NEW ROADS*     FAIR      77  45  32 NW12G20   29.92S
GONZALES*      FAIR      78  47  33 W9        29.88S
HAMMOND*       SUNNY     81  37  21 NW10G17   29.88S
HOUMA*         NOT AVBL
PORT FOURCHON* CLEAR     79  48  34 W10G16    29.88F

$$

LAZ041-044-053-054-052300-
SOUTHWEST LOUISIANA

CITY           SKY/WX    TMP DP  RH WIND       PRES   REMARKS
LAKE CHARLES   SUNNY     82  46  28 N12       29.92F
LAFAYETTE      SUNNY     81  47  30 N13       29.91F
PATTERSON      NOT AVBL
SALT POINT       N/A     79  50  36 VRB5      29.88F
NEW IBERIA     SUNNY     80  46  30 N15       29.91F
CHENAULT AIRPK SUNNY     81  46  30 N10G17    29.93F

$$

LAZ027-028-052300-
CENTRAL LOUISIANA

CITY           SKY/WX    TMP DP  RH WIND       PRES   REMARKS
FORT POLK      SUNNY     78  45  30 N8        29.93F
ALEXANDRIA INT SUNNY     79  45  29 N13       29.92F
ALEXANDRIA     SUNNY     82  44  26 N9        29.92F

$$

LAZ001-002-052300-
NORTHWEST LOUISIANA

CITY           SKY/WX    TMP DP  RH WIND       PRES   REMARKS
SHREVEPORT     SUNNY     79  44  28 N12       29.96F
BARKSDALE AFB  SUNNY     78  46  32 VRB7      29.96F
DTN SHREVEPORT SUNNY     78  47  33 VRB7      29.96F

$$

LAZ014-016-052300-
NORTHEAST LOUISIANA

CITY           SKY/WX    TMP DP  RH WIND       PRES   REMARKS
MONROE         SUNNY     78  46  32 N10       29.95F
TALLULAH       SUNNY     76  39  26 N16G23    29.94S

$$





USA.gov is the U.S. government's official web portal to all federal, state and local government web resources and services.